Spen 20 External Results
Liversedge
11 Mar 18
Head to Head - to compare runners check 2 or more boxes below and then click
 
20M
PosGun   Name AG ClubSBPBHC  
11:53:35   Scott Harrington SBV35MOtley1:53:351:52:02-2.9 
21:54:58   Lewis Gamble-Thompson PBSENMNew Marske1:54:581:54:58-2.1 
32:00:05   Ed Hyland PBSENMStainland2:00:052:00:05-0.4 
42:01:08   Neal Emmerson PBV35MRadcliffe2:01:082:01:08-1.0Click your Clock logo
52:02:28   Phil Elliott PBV40MKnavesmire2:02:282:02:280.6 
62:04:55   Will Kerr SBV40MSaltaire Striders/Bradford Airedale2:04:552:04:12-0.1 
72:05:38   Simon Spears PBV35MAckworth2:05:382:05:381.7 
82:06:16   Tom Thomas PBSENMHyde Park Harriers/Bingley2:06:162:06:160.7 
92:07:26   Andrew Bennett PBV35MValley Striders2:07:262:07:262.1 
102:07:48   Chris Ward SBSENMWakefield2:07:482:04:131.5 
112:08:28   Jonathan Cleaver PBV35MClayton le Moors2:08:282:08:280.2 
122:08:49   Ian Richardson PBV35MWakefield2:08:492:08:491.7Click your Clock logo
132:09:07   Tom Jagger PBV35MStadium Runners2:09:072:09:071.5 
142:09:52   Simon Lambert SBV35MUnattached2:09:522:06:05-0.1Click your Clock logo
152:10:11   Stuart Tucker PBV40MSwinton2:10:112:10:111.5Click your Clock logo
162:10:33   Matthew Pinnock PBSENMPudsey Pacers2:10:332:10:330.7Click your Clock logo
172:10:56   Andrew Hebden SENMMorpeth    
182:11:15   Richard Stevenson PBV40MClayton le Moors/Unattached2:11:152:11:152.8 
192:12:39   Fiona Davies PBV40WRotherham2:12:392:12:392.4 
202:12:51   Edward Revell PBV40MSpenborough2:12:512:12:513.0 
212:13:21   Daniel Bird SBSENMSwinton2:13:212:00:461.6 
222:13:25   Tony Flanagan SBV50MSwinton2:13:252:05:572.4 
232:13:53   Ian Maudsley PBV35MSt. Theresa's2:13:532:13:532.2 
242:14:08   Glenton Johnson SBV40MSt. Theresa's2:14:082:13:143.3 
252:14:59   Matthew Nowell PBV35MSaltaire Striders/Bradford Airedale2:14:592:14:593.7 
262:15:40   Jon Pinder SBV35MKnavesmire2:15:402:12:432.3 
272:15:55   Michael Smith SENMPocklington    
282:15:59   Kevin Ryan SBV40MSwinton2:15:592:13:573.8 
292:16:02   Neal Edmondsen SENMHorsforth    
302:16:42   Ian Cronshaw PBSENMSwinton2:16:422:16:423.2 
312:18:21   Chris Jefferies PBV45MBillingham2:18:212:18:213.6 
322:19:12   David Blow V50M     
332:19:20   Zanthe Wray PBSENWHallamshire/Sheffield Uni2:19:202:19:202.5 
342:20:33   Richard Hirst PBV35MSpenborough2:20:332:20:336.0 
352:21:07   Kevin Lister  V45MNorth East Vets2:19:202:12:274.7 
362:21:20   Simon Brady PBV50MQueensbury2:21:202:21:204.5 
372:21:27   Ian Willis PBV45MKeighley & Craven2:21:272:21:273.6 
382:21:34   Mathew Richardson SENM     
392:22:04   Jonathan Young PBSENMKirkstall2:22:042:22:042.0 
402:22:10   Carl Heron PBV55MQueensbury2:22:102:22:105.2 
412:22:20   Karl Field SENM     
422:22:24   Jason Higgins  SENMKnavesmire2:16:342:16:349.1 
432:22:29   Caroline Hoath PBV40WMeltham2:22:292:22:297.0 
442:22:45   Terry Midgley SBV45MValley Striders2:22:452:13:451.2 
452:22:59   Chris Jones PBV50MWharfedale2:22:592:22:595.8 
462:23:39   Rebecca Winter SBSENWAckworth2:23:392:23:374.0Click your Clock logo
472:23:55   Lindsey Clegg PBV35WHorsforth Harriers2:23:552:23:555.3 
482:24:56   Andrew Davies SBV35MBillingham2:24:562:12:334.6 
492:25:11   Jenni Muston SBV40WSpenborough2:25:112:15:506.0 
502:25:17   Ryan Barker SBV45MHalifax2:25:172:02:104.4 
512:25:28   Daniel Plant SBV35MClayton le Moors2:25:282:19:316.3 
522:26:02   Paul Foster V55M     
532:26:29   Andrew Byram PBV40MDewsbury2:26:292:26:296.7 
542:27:02   Gerard Skippins SBV40MSpenborough2:27:022:24:013.6 
552:27:08   Sam Blashard SENMCalder Valley    
562:27:16   Tristan Featherby PBSENMPocklington2:27:162:27:164.3Click your Clock logo
572:27:54   Vincent Jensen PBV35MNorthwich2:27:542:27:547.4 
582:28:24   Neil Thompson SBV40MFitmums & Friends2:28:242:17:496.7 
592:28:35   Steve Tether  V45MUnattached2:25:092:25:094.8 
602:29:10   Craig Thompson PBSENMRoberttown2:29:102:29:107.3 
612:29:12   Shamiso Sisimayi  V35WHarrogate2:23:512:22:196.6 
622:29:33   Joe Baker  V35MStadium Runners2:23:572:23:575.5 
632:29:40   Ian Ogden SBV45MSpenborough/Saltaire Striders2:29:402:22:064.9 
642:29:56   Adam Moger PBV40MKirkstall2:29:562:29:565.8 
652:31:05   Ewan Cochrane PBV35MKnavesmire2:31:052:31:056.0 
662:31:16   Richard Kennedy-Joyce SBSENMKirkstall2:31:162:14:139.7 
672:31:34   Mark Yates SBV45MKingstone2:31:342:25:049.9 
682:31:48   Amy Young PBSENWHyde Park Harriers2:31:482:31:485.9 
692:32:32   Tara Spillings SBSENWUnattached2:32:322:22:077.7 
702:33:32   Adrian Sell PBV35MSaddleworth/Wootton RR2:33:322:33:324.3 
712:33:58   Richard Aiston PBV55MDewsbury2:33:582:33:588.8 
722:34:15   Sian Elizabeth Evans  SENWSteel City2:21:162:21:164.7 
732:34:34   Jon Wilson SBV40MCity of Hull2:34:342:30:393.1Click your Clock logo
742:34:51   Megan Button PBSENWBarnsley AC/Penistone2:34:512:34:519.4 
752:34:52   Oliver Simon Pike SBV35MPenistone2:34:522:22:204.9 
762:34:53   Nicholas Tutill PBV40MKnavesmire2:34:532:34:5310.9 
772:35:51   Julie Masterman SBV50WGoole Viking Striders2:35:512:21:477.6 
782:37:19   David Ingle PBV55MHalifax2:37:192:37:196.5 
792:37:42   Dave Butler PBV45MSpenborough2:37:422:37:429.1 
802:38:15   Hayley Nancolas PBV35WValley Striders2:38:152:38:158.1 
812:38:24   Andrew Wiggins SBV45MHalifax/Stainland2:38:242:17:544.7 
822:39:01   Richard Harrison SBV45MSelby2:39:012:27:116.2Click your Clock logo
832:39:13   Vincent Baker PBSENMSteel City2:39:132:39:137.1 
842:39:15   Stuart Whale PBV45MAckworth2:39:152:39:156.1 
852:39:16   Simon Edwards-Barber PBSENMAckworth2:39:162:39:166.3 
862:40:19   Emer Dudley SBV55WRoberttown2:40:192:26:389.3 
872:40:25   Sue Straw PBV45WKeighley & Craven2:40:252:40:259.9Click your Clock logo
882:41:00   Clare Rowntree SBSENWKnavesmire2:41:002:37:1610.8 
892:41:12   Andrew Hilton V40M     
902:42:00   Nuno César de Sá PBV40MSkyrac2:42:002:42:006.6Click your Clock logo
912:42:00   Rebecca Cesar de Sa PBV40WSkyrac2:42:002:42:008.6 
922:42:12   Nicola Blyth PBV40WWhite City (Hull)2:42:122:42:129.7Click your Clock logo
932:42:29   Rebecca Gray PBSENWHyde Park Harriers2:42:292:42:299.9 
942:43:19   Paul Grist  V50MKirkstall2:43:072:43:077.0 
952:43:32   Paul Dickens PBSENMHyde Park Harriers2:43:322:43:3210.6 
962:44:00   Rowan Temple PBSENMKirkstall2:44:002:44:006.0 
972:44:23   Emma Warner SBV40WWetherby2:44:232:35:1212.6 
982:44:27   Paul Smith PBV50MDewsbury2:44:272:44:2710.1 
992:44:35   Ed Senior PBSENMRoberttown2:44:352:44:358.0 
1002:45:55   Mathew Radbourne V45M     
1012:46:39   Janine Fallon SBV40WBlackburn/Lancashire Constabulary2:46:392:33:2210.8 
1022:46:44   Idris Mansoor SBV40MDewsbury2:46:442:34:4013.7 
1032:46:48   Emily Turner PBSENWHorsforth Harriers2:46:482:46:4812.7 
1042:46:50   Ann Foster V45WWetherby    
1052:47:09   Rachel Ball V35WSunderland    
1062:47:14   Michael Tinker V45M     
1072:47:22   John Parry V50M     
1082:47:34   Sara Morrow PBV45WSelby2:47:342:47:3410.8 
1092:48:21   Beth Rendall PBU23WHyde Park Harriers2:48:212:48:2112.7 
1102:49:03   Matt Worsman SENM     
1112:49:58   Christopher Gill PBV70MSt. Theresa's2:49:582:49:5810.3 
1122:50:01   Clare Evans PBSENWHyde Park Harriers2:50:012:50:0110.1Click your Clock logo
1132:50:56   Justin Birtwistle PBV40MClayton le Moors2:50:562:50:5610.9 
1142:51:28   Chris Pearson PBV45MMethley2:51:282:51:289.8 
1152:51:33   Flora Skidmore SBV55WDewsbury2:51:332:17:5710.3 
1162:51:42   Ellen Sharpe SENWHyde Park    
1172:51:44   Chris Wainman V40MHuddersfield    
1182:51:52   Ian Gahagan PBV60MNorthern Masters2:51:522:51:5213.0 
1192:51:54   Mark Doyle PBV35MFarsley Flyers2:51:542:51:5410.1 
1202:52:24   Lorne Mcneill SBV45MBaildon2:52:242:19:1611.2 
1212:52:41   Alan Schofield PBV55MBarnsley H2:52:412:52:419.1 
1222:52:43   Claire Thompson PBV35WSpenborough2:52:432:52:4315.0 
1232:54:05   Sandy George SBV50WAckworth2:54:052:50:5313.4 
1242:54:24   Robert Greaves PBV45MPudsey Pacers2:54:242:54:249.7 
1252:54:29   Tony George V50M     
1262:55:19   Emma Dooley SBV40WNidd Valley2:55:192:53:2612.1 
1272:55:24   Emma Dunn PBV45WTadcaster2:55:242:55:2412.8 
1282:57:24   Isobel Webster PBSENWKirkstall2:57:242:57:2412.4 
1292:58:04   Jan Michl SENM     
1302:58:14   Emma David PBV40WNidd Valley2:58:142:58:1412.5 
1312:58:48   Richard Bell V50MWetherby    
1322:58:49   Wayne Avery PBV35MHorsforth Harriers2:58:492:58:4915.4 
1332:59:12   Jackie Russell PBV40WMethley2:59:122:59:1214.0 
1342:59:37   John Atkinson V45M     
1353:00:05   Mark Leadbeater PBV50MAckworth3:00:053:00:059.4 
1363:01:18   Tao Liu PBV40WSt. Theresa's3:01:183:01:1817.0 
1373:01:37   Louise Siddall PBV45WKimberworth3:01:373:01:3716.1 
1383:02:48   Leanne Alston PBSENWQueensbury3:02:483:02:4812.8 
1393:03:11   Steven Pilling SBV50MDewsbury3:03:112:31:0910.0 
1403:03:14   Amy Linley PBSENWDewsbury3:03:143:03:1413.1 
1413:05:12   Nicola Forwood PBSENWHyde Park Harriers3:05:123:05:1212.6Click your Clock logo
1423:05:38   Alister Robson SBV45MFetch Everyone3:05:382:43:259.8Click your Clock logo
1433:06:07   Elizabeth Nairn SBSENWSelby3:06:072:36:269.0 
1443:06:37   Emma Kettlewell PBSENWNidd Valley3:06:373:06:3720.4 
1453:06:52   Paul Baker SBSENMSelby3:06:523:03:0117.2 
1463:07:50   Adam Rahnavard SENM     
1473:08:08   Richard Cooper SBV40MSt. Theresa's3:08:082:53:4112.2 
1483:09:05   Karen Bowman SBV40WUnattached3:09:052:54:4818.5 
1493:09:59   Julie Hepworth PBV40WQueensbury3:09:593:09:5915.5 
1503:10:14   Joanne Loftus SBV40WSt. Theresa's3:10:143:09:2813.8 
1513:10:59   Debbie Bland SBV60WEccleshill3:10:592:53:1015.8 
1523:11:34   Martin Wright V55MBfd Airedale    
1533:11:34   Mohanlal Mistry PBV55MSaltaire Striders3:11:343:11:3414.2 
1543:12:04   Steve Laffey V55M     
1553:12:08   Vicky Webb V45W     
1563:14:51   Adam Beesting  V35MFarsley Flyers2:50:342:50:3412.3 
1573:16:35   Gail Wrangles SBV45WAckworth3:16:352:53:5115.5 
1583:17:06   Lindi Day  V40WFitmums & Friends3:11:302:53:4018.9 
1593:23:35   Sohail Miran V45MBfd Airedale    
1603:24:52   Helen Fenton SBV50WSt. Theresa's3:24:523:22:3317.4 
1613:24:52   Shaun Loftus PBV50MSt. Theresa's3:24:523:24:5215.7 
1623:28:53   Tania Leung V35W     
1633:28:53   Dom Charkin PBV40MFarsley Flyers3:28:533:28:5311.3 
1643:29:20   Lee Shorrock SENM     
1653:29:29   Amie Gardner SBSENWAckworth3:29:293:12:3915.4 
1663:29:29   Sarah Rose PBV45WAckworth3:29:293:29:2916.0 
1673:30:33   John Flanaghan SENM     
1683:31:23   Anne Worrall PBV45WValley Striders3:31:233:31:2318.7 
1693:31:57   Jenny Mynett SBV35WAirecentre Pacers3:31:573:19:0619.8 
1703:33:12   Gareth Tucker SENM     
1713:36:42   Robin Coghlan V50M     
1723:41:12   Philip Robinson SBV50MQueensbury3:41:122:47:4027.7 
1733:54:37   Stephanie Ramskill V45W     
1743:54:37   Neil Stearne PBV50MMethley3:54:373:54:3721.0 
1753:54:37   Kevin Chippendale SBV60MAckworth/West Yorkshire Police3:54:373:12:1512.1 
1764:02:10   Sarah Pay PBV40WFitmums & Friends4:02:104:02:1025.4 
1774:02:10   Clare Rex PBV45WFitmums & Friends4:02:104:02:1024.7 
1784:06:30   Julie Wilkinson V35W     
1794:06:30   Nicola Morter V35W     
1804:08:58   Kate Holliday V40W